Flag for Germany Weather past 2 weeks in Osterholz-Scharmbeck, Lower Saxony, Germany

Now
62 °F

Overcast.


Feels Like: 62 °F
Forecast: 53 / 64 °F
Wind: 7 mph from Southwest

Location: Bremen

Current Time: Aug 30, 2014 at 12:48:10 PM

Latest Report: Aug 30, 2014 at 12:00 PM


Visibility: 11 mi

Pressure: 29.96 "Hg

Humidity: 88%

Dew point: 59 °F

Location of Osterholz-ScharmbeckLocation

Historic Weather in Osterholz-Scharmbeck — Graph

°F

Osterholz-Scharmbeck temperature yesterday

Maximum temperature yesterday: 72 °F (at 4:00 PM)
Minimum temperature yesterday: 61 °F (at 6:00 AM)
Average temperature yesterday: 65 °F

Past Weeks' High & Low Weather Summary

 TemperatureHumidityPressure
High74 °F (Aug 28, 3:00 PM)99% (Aug 27, 4:00 AM)30.05 "Hg (Aug 27, 4:00 AM)
Low43 °F (Aug 25, 6:00 AM)33% (Aug 27, 3:00 PM)29.53 "Hg (Aug 18, 9:00 AM)
Average57 °F78%29.88 "Hg
* Reported Aug 15 12:00 Noon — Aug 30 12:00 Noon, Osterholz-Scharmbeck, Weather by CustomWeather, © 2014

Note: Actual official high and low records may vary slightly from our data, if they occured in-between our weather recording intervals... More about our weather records

Advertising

Osterholz-Scharmbeck weather history for previous 24 hours

 ConditionsComfort  
Time TempWeatherWind HumidityBarometerVisibility
12:00 PM
Aug 30
62 °FOvercast.7 mph88%29.96 "Hg11 mi
10:00 AM62 °FOvercast.6 mph82%29.95 "Hg11 mi
9:00 AM61 °FOvercast.6 mph83%29.94 "Hg11 mi
8:00 AM60 °FOvercast.5 mph84%29.94 "Hg11 mi
7:00 AM59 °FPartly sunny.5 mph85%29.94 "Hg9 mi
6:00 AM59 °FOvercast.3 mph88%29.94 "Hg12 mi
5:00 AM60 °FOvercast.5 mph87%29.95 "Hg12 mi
4:00 AM59 °FOvercast.3 mph90%29.96 "Hg12 mi
3:00 AM60 °FSprinkles. Overcast.5 mph87%29.97 "Hg11 mi
2:00 AM58 °FOvercast.2 mph88%29.97 "Hg12 mi
1:00 AM58 °FOvercast.2 mph86%29.98 "Hg12 mi
12:00 AM60 °FOvercast.3 mph82%29.98 "Hg12 mi
9:00 PM
Aug 29
62 °FOvercast.2 mph76%29.95 "Hg16 mi
8:00 PM66 °FOvercast.5 mph67%29.95 "Hg16 mi
7:00 PM69 °FOvercast.5 mph55%29.94 "Hg16 mi
6:00 PM71 °FPartly sunny.7 mph50%29.94 "Hg14 mi
5:00 PM71 °FPartly sunny.6 mph54%29.94 "Hg16 mi
4:00 PM72 °FScattered clouds.6 mph50%29.94 "Hg16 mi
3:00 PM69 °FPassing clouds.7 mph54%29.95 "Hg16 mi
2:00 PM68 °FScattered clouds.8 mph59%29.95 "Hg16 mi
1:00 PM70 °FScattered clouds.8 mph56%29.94 "Hg14 mi
12:00 PM65 °FScattered clouds.7 mph72%29.94 "Hg12 mi
Weather by CustomWeather, © 2014

See weather overviewHow to use our weather pages